Torna al catalogo

STARLINK-37429

AttivoComunicazioniVLEO
NORAD 69523·PAYLOAD·🇺🇸 United States

Lanciato Jun 12, 2026 da Cape Canaveral Space Force Station

Loading…

Prossimi Passaggi (prossime 24 ore)

TLE

AggiornatoSource: CelesTrak SupGP

Epoca: Sep 14, 2026, 22:41 UTC

1 69523C 26133R   26257.94562500  .00046647  00000+0  13783-2 0  2570
2 69523  53.1565 255.5360 0001211  90.4640 261.5440 15.34364315    14

Traccia STARLINK-37429 in tempo reale con AllMySat

Download on the App Store